Location: Astronight Observatory
(42.6003°N, 71.2981°W)
Time: 16:35:52
(UTC-04:00)

Daily predictions for brighter satellites

Satellite Brightness Start Highest point End
(mag) Time Altitude Azimuth Time Altitude Azimuth Time Altitude Azimuth
Meteor 1-12 Rocket 4.4 20:32:31 10° N 20:38:35 82° E 20:44:34 10° SSE
Cosmos 1680 Rocket 4.3 20:38:14 10° SSE 20:42:46 30° E 20:47:17 10° NE
SL-27 R/B 4.3 20:42:08 10° SE 20:44:19 15° E 20:46:29 10° ENE
SPOT 5 4.3 20:44:37 10° ESE 20:47:33 18° ENE 20:50:29 10° NNE
Cosmos 1812 4.3 20:44:57 10° SSW 20:48:37 40° WNW 20:52:18 10° N
Cosmos 1709 Rocket 4.4 20:45:54 10° NNW 20:52:09 69° W 20:58:16 10° S
Cosmos 1743 3.0 20:49:22 10° N 20:53:10 51° E 20:56:58 10° SSE
Iridium 4 Rocket 4.1 20:49:53 10° N 20:54:45 60° W 21:00:03 10° SSW
Cosmos 1346 3.8 20:52:47 10° SSE 20:55:14 29° E 20:57:42 10° NNE
Envisat 3.2 20:51:29 10° S 20:56:33 77° WSW 21:01:40 10° NNW
Spot 1 4.3 20:54:51 10° S 20:59:26 75° WSW 21:03:47 10° NNW
ASTEX 1 3.8 20:57:31 10° SSE 21:02:13 46° ENE 21:06:54 10° N
Aureole 3 Rocket 3.9 20:56:32 10° S 21:03:11 58° E 21:07:55 10° NNE
Tiangong 2 2.2 21:08:42 10° SSW 21:11:20 24° SSE 21:13:19 14° ESE
Cosmos 1437 Rocket 4.3 21:08:59 10° NNE 21:11:52 20° ENE 21:13:57 14° ESE
Aureole 1 Rocket 2.9 21:09:34 10° S 21:12:43 35° ESE 21:15:33 10° NE
Okean 1-7 Rocket 4.3 21:08:52 10° SSE 21:12:56 36° E 21:17:03 10° NNE
Meteor 2-9 Rocket 4.5 21:07:42 10° N 21:13:02 52° ENE 21:17:54 13° SSE
NOSS 2-2 (E) 3.6 21:09:55 10° SW 21:13:57 84° NW 21:18:41 10° NE
Cosmos 1238 Rocket 4.4 21:08:42 10° SSE 21:15:09 53° E 21:21:32 10° NNE
DNEPR-1 R/B 3.7 21:12:35 10° NNW 21:16:48 62° NE 21:20:18 16° SE
Meteor 2-4 Rocket 3.8 21:15:01 10° S 21:20:31 61° E 21:26:14 10° NNE
ISS -2.9 21:20:47 10° SSW 21:23:38 28° SE 21:26:30 10° ENE
Cosmos 1666 2.6 21:20:03 10° N 21:23:49 80° E 21:26:56 14° S
Meteor 2-13 Rocket 4.4 21:19:41 10° N 21:25:47 90° WNW 21:31:52 10° S
OAO 2 Rocket 4.0 21:23:42 10° SW 21:28:07 33° S 21:31:02 18° ESE
Cosmos 923 Rocket 4.2 21:22:48 10° SSW 21:28:08 80° WNW 21:33:29 10° NNE
Cosmos 1833 Rocket 4.5 21:29:45 12° E 21:30:13 12° E 21:32:14 10° ENE
Cosmos 2184 Rocket 4.1 21:25:54 10° N 21:32:18 81° W 21:38:34 10° S
Cosmos 2074 Rocket 4.2 21:26:14 10° N 21:32:29 77° W 21:38:44 10° S
CZ-3A R/B 2.2 21:30:28 10° SSW 21:33:08 20° SSE 21:33:08 20° SSE
Cosmos 1610 Rocket 4.5 21:30:00 10° N 21:36:20 78° E 21:41:40 14° SSE
Lacrosse 5 rocket 4.5 21:36:15 10° NW 21:38:40 14° N 21:41:07 10° NNE
USA 245 2.8 21:38:45 32° ESE 21:39:30 42° ENE 21:41:53 10° N
Cosmos 1606 Rocket 4.1 21:35:28 10° N 21:39:34 40° ENE 21:41:41 24° SE
Intercosmos 24 3.8 21:37:04 10° N 21:41:09 64° E 21:43:05 25° SSE
YAOGAN 11 4.0 21:40:59 21° SSE 21:43:48 78° ENE 21:48:09 10° N
Cosmos 1656 Rocket 4.4 21:39:56 10° NW 21:45:09 47° WSW 21:49:50 13° S
YAOGAN 6 4.0 21:42:15 10° SSW 21:45:26 33° W 21:48:39 10° NNW
ERS-1 Rocket 3.4 21:41:29 12° S 21:46:03 61° WSW 21:51:03 10° NNW
USA 267 4.4 21:42:20 10° ENE 21:46:46 19° ESE 21:46:46 19° ESE
MetOp-A 4.2 21:45:09 16° S 21:49:28 78° WSW 21:54:51 10° NNW
Meteor 1-23 Rocket 4.1 21:44:09 10° S 21:49:42 83° E 21:55:20 10° NNE
Cosmos 1726 Rocket 4.0 21:46:23 10° N 21:50:33 44° ENE 21:52:23 28° SE
MOS 1-B Rocket 4.0 21:46:03 17° SSE 21:50:38 84° WSW 21:57:00 10° NNW
Cosmos 405 Rocket 4.4 21:49:06 10° SW 21:52:30 33° WNW 21:56:00 10° N
GENESIS II 4.3 21:49:17 10° NW 21:53:14 70° WSW 21:55:01 30° SSE
Cosmos 1515 4.2 21:53:03 32° SE 21:54:10 40° E 21:57:45 10° NNE
H-2A R/B 2.2 21:52:51 25° SE 21:55:32 56° ENE 22:00:27 10° N
Cosmos 1980 Rocket 4.3 21:53:28 10° N 21:56:44 15° NE 21:59:57 10° E
Cosmos 2058 Rocket 3.8 21:52:50 10° N 21:56:58 38° ENE 21:58:34 28° ESE
Meteor 1-15 Rocket 4.1 21:52:10 10° N 21:57:48 86° E 22:01:26 23° S
Cosmos 2112 Rocket 4.4 21:55:49 10° SSW 22:00:59 63° WNW 22:06:10 10° NNE
Cosmos 962 Rocket 4.5 21:55:20 10° N 22:01:37 70° E 22:05:22 25° SSE
Cosmos 1025 Rocket 3.1 21:58:34 14° SSW 22:02:10 72° W 22:06:26 10° N
CENTAUR R/B 3.8 21:55:21 10° NW 22:02:56 49° WSW 22:09:18 17° S
Cosmos 1441 Rocket 4.2 22:01:36 10° SSW 22:05:11 44° WNW 22:08:48 10° N
Cosmos 1624 Rocket 4.0 22:03:02 10° NNW 22:08:20 80° ENE 22:10:57 31° SSE
PSLV R/B 3.2 22:07:40 10° W 22:10:40 54° SSW 22:10:40 54° SSW
Cosmos 2154 Rocket 4.3 22:09:33 10° NNW 22:15:52 69° W 22:20:26 20° S
SL-08 RB Rocket 3.9 22:14:43 29° S 22:16:57 66° WSW 22:21:25 10° NNW
ARGOS 3.5 22:13:33 21° S 22:17:05 59° WSW 22:22:28 10° NNW
Nimbus 7 Rocket 4.4 22:11:10 10° NNE 22:17:16 89° ESE 22:22:26 15° SSW
SL-27 R/B 4.2 22:15:53 10° SW 22:19:14 34° WNW 22:22:36 10° N
SL-8 Rocket 4.1 22:13:58 10° N 22:20:09 60° E 22:23:02 32° SE
Landsat 7 3.7 22:21:40 38° SSE 22:23:30 79° ENE 22:28:17 10° N
Cosmos 2366 rocket 4.4 22:18:11 10° N 22:24:07 47° ENE 22:26:33 32° SE
SPOT 5 3.5 22:23:04 23° SSW 22:25:19 43° W 22:29:28 10° NNW
H-2A R/B 2.4 22:24:49 41° SE 22:26:06 57° ENE 22:30:34 10° N
Cosmos 2278 3.8 22:20:42 10° NNW 22:26:25 70° ENE 22:28:45 36° SE
Cosmos 2056 Rocket 3.5 22:21:53 10° NNW 22:27:04 76° WSW 22:29:09 36° S
Cosmos 2082 Rocket 2.6 22:28:02 36° SE 22:29:26 43° ESE 22:34:45 10° NE
Cosmos 1626 Rocket 3.9 22:37:18 43° E 22:37:30 43° E 22:41:36 10° NNE
CZ-4B R/B 4.0 22:33:44 10° NNE 22:38:30 41° E 22:39:09 39° ESE
Terra 1.7 22:37:12 47° SSE 22:38:33 78° ENE 22:43:20 10° N
Cosmos 839 Rocket 4.3 22:34:42 10° NW 22:41:16 82° WSW 22:44:54 34° SSE
Cosmos 2341 Rocket 4.5 22:37:45 10° NNW 22:43:56 57° W 22:47:39 25° SSW
Cosmos 2369 3.7 22:39:15 10° NNW 22:45:01 86° WSW 22:46:58 44° SSE
Cosmos 967 Rocket 4.4 22:39:18 10° SSW 22:45:35 84° WNW 22:51:55 10° NNE
Spot 4 4.2 22:45:18 42° ESE 22:46:20 49° ENE 22:50:58 10° N
SPOT 1/Viking Rocket 4.4 22:44:17 26° SSW 22:46:45 43° W 22:51:40 10° NNW
COSMOS 2487 2.4 22:47:21 84° NNE 22:47:21 84° NNE 22:50:50 10° NNE
Tiangong 2 3.3 22:44:39 10° WSW 22:45:36 18° WSW 22:45:36 18° WSW
Cosmos 1437 Rocket 4.4 22:44:54 10° NW 22:48:10 27° W 22:49:25 22° SW
Cosmos 1959 Rocket 4.5 22:44:37 10° N 22:51:02 85° E 22:53:30 40° S
SL-08 R/B 4.4 22:44:56 10° N 22:51:05 75° E 22:53:11 43° SSE
SL-16 R/B 4.4 22:51:10 10° N 22:54:34 16° NE 22:57:58 10° E
Cosmos 1697 Rocket 2.9 22:49:13 10° NNW 22:54:47 59° ENE 22:56:25 42° ESE
Cosmos 1953 4.3 22:52:24 10° NNE 22:55:13 18° ENE 22:55:13 18° ENE
IGS 5A 3.5 22:56:43 61° SSW 22:57:14 69° WSW 23:01:24 10° NNW
Cosmos 1452 Rocket 3.4 22:54:04 10° NNW 22:59:22 86° ENE 23:00:34 55° SSE
ISS -2.5 22:56:54 10° W 23:00:02 40° NNW 23:03:11 10° NE
Cosmos 2218 Rocket 3.9 22:54:12 10° N 23:00:23 82° W 23:02:39 42° S
DELTA 2 DEB (DPAF) 4.2 23:01:37 58° ESE 23:02:04 62° ENE 23:06:31 10° N
Iridium 2 4.4 23:02:09 10° N 23:05:19 44° NE 23:05:19 44° NE
Cosmos 1271 Rocket 3.6 23:02:18 10° N 23:05:37 39° ENE 23:05:37 39° ENE
Cosmos 2228 3.8 23:01:59 10° NNW 23:06:04 42° W 23:06:54 37° WSW
deb Chang Zheng 4 3.8 23:06:18 10° N 23:10:35 63° WNW 23:11:26 50° SW
Cosmos 1602 Rocket 3.4 23:10:37 75° SW 23:10:57 82° W 23:15:18 10° N
Cosmos 921 Rocket 4.1 23:08:06 10° NW 23:12:11 35° W 23:12:53 33° WSW
Cosmos 1833 Rocket 2.6 23:11:23 45° SSW 23:13:14 90° ESE 23:18:54 10° NNE
Cosmos 1656 3.7 23:09:48 10° NNW 23:15:13 69° WSW 23:16:17 55° SSW
Lacrosse 5 rocket 4.3 23:16:36 10° NNW 23:19:36 17° NNE 23:22:37 10° NE
Meteor 1-21 4.1 23:19:44 58° SSE 23:20:50 76° E 23:26:34 10° NNE
CZ-4 R/B 4.3 23:20:08 10° N 23:25:05 62° WNW 23:26:31 44° SW
Cosmos 468 4.4 23:24:11 59° SSW 23:25:13 86° WNW 23:30:33 10° NNE
Cosmos 1766 3.5 23:21:42 10° NNW 23:25:11 65° NW 23:25:11 65° NW
USA 267 3.1 23:23:53 10° NE 23:30:27 76° SE 23:34:02 29° SW
Nadezhda 3 Rocket 4.0 23:29:12 54° SSE 23:30:40 72° E 23:37:02 10° NNE
Meteor 1-4 Rocket 4.0 23:27:32 10° NNW 23:30:20 30° WNW 23:30:20 30° WNW
Cosmos 1758 4.0 23:30:34 10° N 23:33:51 48° NE 23:33:51 48° NE
H-2A R/B 4.0 23:33:29 14° WSW 23:35:21 17° W 23:38:31 10° NW
Cosmos 1980 Rocket 2.0 23:35:57 10° NNW 23:41:39 83° ENE 23:42:26 67° SE
Cosmos 1470 4.2 23:39:29 10° N 23:42:26 30° NE 23:42:26 30° NE
SeaSat 1 2.6 23:46:39 60° E 23:47:09 64° ENE 23:52:04 10° NNW
SME Rocket 3.5 23:46:35 69° SSE 23:47:15 84° ENE 23:51:39 10° NNW
Cosmos 1821 Rocket 4.0 23:42:48 10° N 23:49:05 71° E 23:50:18 57° SE
Cosmos 2322 Rocket 3.3 23:44:44 10° N 23:50:01 37° ENE 23:51:42 31° E
